Stündliche Wetter Dortmund

Heute, 11 April, Sonntag

Zeit Temperatur Niederschläge Wind Luftdruck Luftfeuchtigkeit
00:00 +8°C° 0 mm 4 m/S 746 mmHg 94%
01:00 +8°C° 0.4 mm 4 m/S 746 mmHg 95%
02:00 +9°C° 0.4 mm 3 m/S 746 mmHg 95%
03:00 +9°C° 0.4 mm 3 m/S 746 mmHg 96%
04:00 +8°C° 0.5 mm 3 m/S 747 mmHg 96%
05:00 +7°C° 0.5 mm 3 m/S 747 mmHg 97%
06:00 +4°C° 0 mm 3 m/S 747 mmHg 97%
07:00 +4°C° 0.2 mm 3 m/S 748 mmHg 97%
08:00 +3°C° 0.2 mm 3 m/S 748 mmHg 96%
09:00 +3°C° 0.2 mm 3 m/S 749 mmHg 96%
10:00 +3°C° 0.3 mm 3 m/S 749 mmHg 94%
11:00 +3°C° 0.3 mm 3 m/S 750 mmHg 91%
12:00 +3°C° 0.3 mm 3 m/S 750 mmHg 89%
13:00 +3°C° 0.7 mm 3 m/S 751 mmHg 87%
14:00 +4°C° 0.7 mm 3 m/S 751 mmHg 85%
15:00 +4°C° 0.7 mm 3 m/S 751 mmHg 84%
16:00 +4°C° 0.1 mm 3 m/S 752 mmHg 82%
17:00 +3°C° 0.1 mm 3 m/S 753 mmHg 81%
18:00 +3°C° 0.1 mm 3 m/S 753 mmHg 80%
19:00 +2°C° 0 mm 3 m/S 754 mmHg 82%
20:00 +2°C° 0 mm 3 m/S 755 mmHg 84%
21:00 +2°C° 0 mm 2 m/S 756 mmHg 87%
22:00 +2°C° 0 mm 2 m/S 756 mmHg 88%
23:00 +2°C° 0 mm 1 m/S 756 mmHg 89%

Morgen, 12 April, Montag

Zeit Temperatur Niederschläge Wind Luftdruck Luftfeuchtigkeit
00:00 +2°C° 0 mm 1 m/S 757 mmHg 91%
01:00 +1°C° 0 mm 1 m/S 757 mmHg 91%
02:00 +1°C° 0 mm 1 m/S 758 mmHg 92%
03:00 -1°C° 0 mm 2 m/S 758 mmHg 92%
04:00 +1°C° 0 mm 2 m/S 759 mmHg 90%
05:00 +1°C° 0 mm 2 m/S 759 mmHg 89%
06:00 +1°C° 0 mm 2 m/S 759 mmHg 87%
07:00 +3°C° 0 mm 2 m/S 760 mmHg 79%
08:00 +4°C° 0 mm 2 m/S 760 mmHg 70%
09:00 +5°C° 0 mm 3 m/S 760 mmHg 62%
10:00 +7°C° 0.1 mm 3 m/S 760 mmHg 57%
11:00 +7°C° 0.1 mm 3 m/S 760 mmHg 52%
12:00 +8°C° 0.1 mm 3 m/S 760 mmHg 47%
13:00 +8°C° 0.4 mm 3 m/S 760 mmHg 51%
14:00 +7°C° 0.4 mm 3 m/S 760 mmHg 56%
15:00 +7°C° 0.4 mm 3 m/S 760 mmHg 61%
16:00 +5°C° 0.3 mm 3 m/S 761 mmHg 67%
17:00 +5°C° 0.3 mm 2 m/S 761 mmHg 73%
18:00 +4°C° 0.3 mm 2 m/S 762 mmHg 79%
19:00 +4°C° 0.1 mm 2 m/S 762 mmHg 81%
20:00 +3°C° 0.1 mm 2 m/S 762 mmHg 83%
21:00 +3°C° 0.1 mm 1 m/S 763 mmHg 86%
22:00 +3°C° 0 mm 1 m/S 763 mmHg 87%
23:00 +2°C° 0 mm 1 m/S 763 mmHg 89%

übermorgen, 13 April, Dienstag

Zeit Temperatur Niederschläge Wind Luftdruck Luftfeuchtigkeit
00:00 +1°C° 0 mm 1 m/S 763 mmHg 91%
01:00 +1°C° 0 mm 1 m/S 764 mmHg 92%
02:00 +1°C° 0 mm 1 m/S 764 mmHg 93%
03:00 0°C° 0 mm 1 m/S 764 mmHg 93%
04:00 +1°C° 0 mm 1 m/S 764 mmHg 92%
05:00 +1°C° 0 mm 1 m/S 765 mmHg 91%
06:00 +2°C° 0 mm 1 m/S 765 mmHg 90%
07:00 +3°C° 0.1 mm 2 m/S 765 mmHg 82%
08:00 +4°C° 0.1 mm 2 m/S 765 mmHg 75%
09:00 +6°C° 0.1 mm 2 m/S 766 mmHg 68%
10:00 +7°C° 0.2 mm 3 m/S 765 mmHg 60%
11:00 +8°C° 0.2 mm 3 m/S 765 mmHg 53%
12:00 +9°C° 0.2 mm 3 m/S 765 mmHg 45%
13:00 +9°C° 0.1 mm 3 m/S 765 mmHg 45%
14:00 +9°C° 0.1 mm 3 m/S 764 mmHg 45%
15:00 +9°C° 0.1 mm 3 m/S 764 mmHg 45%
16:00 +8°C° 0.1 mm 3 m/S 764 mmHg 50%
17:00 +6°C° 0.1 mm 2 m/S 764 mmHg 56%
18:00 +5°C° 0.1 mm 2 m/S 765 mmHg 62%
19:00 +4°C° 0 mm 2 m/S 765 mmHg 65%
20:00 +3°C° 0 mm 2 m/S 765 mmHg 69%
21:00 +3°C° 0 mm 1 m/S 766 mmHg 72%
22:00 +3°C° 0 mm 1 m/S 766 mmHg 75%
23:00 +2°C° 0 mm 1 m/S 765 mmHg 78%

14 April, Mittwoch

Zeit Temperatur Niederschläge Wind Luftdruck Luftfeuchtigkeit
00:00 +2°C° 0 mm 1 m/S 765 mmHg 81%
01:00 +1°C° 0 mm 0 m/S 765 mmHg 83%
02:00 0°C° 0 mm 0 m/S 765 mmHg 84%
03:00 0°C° 0 mm 0 m/S 765 mmHg 86%
04:00 +1°C° 0 mm 0 m/S 765 mmHg 84%
05:00 +1°C° 0 mm 0 m/S 765 mmHg 83%
06:00 +2°C° 0 mm 0 m/S 765 mmHg 81%
07:00 +4°C° 0 mm 1 m/S 765 mmHg 73%
08:00 +5°C° 0 mm 2 m/S 765 mmHg 65%
09:00 +6°C° 0 mm 2 m/S 765 mmHg 57%
10:00 +7°C° 0.1 mm 2 m/S 765 mmHg 52%
11:00 +8°C° 0.1 mm 3 m/S 764 mmHg 46%
12:00 +9°C° 0.1 mm 3 m/S 764 mmHg 40%
13:00 +9°C° 0 mm 3 m/S 764 mmHg 42%
14:00 +9°C° 0 mm 3 m/S 763 mmHg 43%
15:00 +8°C° 0 mm 4 m/S 763 mmHg 45%
16:00 +7°C° 0.2 mm 3 m/S 763 mmHg 54%
17:00 +5°C° 0.2 mm 3 m/S 763 mmHg 64%
18:00 +4°C° 0.2 mm 3 m/S 763 mmHg 73%
19:00 +4°C° 0 mm 2 m/S 764 mmHg 76%
20:00 +3°C° 0 mm 2 m/S 764 mmHg 79%
21:00 +2°C° 0 mm 2 m/S 764 mmHg 82%
22:00 +2°C° 0 mm 2 m/S 764 mmHg 83%
23:00 +1°C° 0 mm 2 m/S 764 mmHg 85%

15 April, Donnerstag

Zeit Temperatur Niederschläge Wind Luftdruck Luftfeuchtigkeit
00:00 +1°C° 0 mm 1 m/S 764 mmHg 87%
01:00 +1°C° 0 mm 1 m/S 764 mmHg 88%
02:00 +1°C° 0 mm 1 m/S 764 mmHg 88%
03:00 +1°C° 0 mm 1 m/S 764 mmHg 89%
04:00 +1°C° 0 mm 1 m/S 764 mmHg 89%
05:00 +1°C° 0 mm 1 m/S 764 mmHg 89%
06:00 +1°C° 0 mm 2 m/S 765 mmHg 88%
07:00 +2°C° 0 mm 2 m/S 765 mmHg 82%
08:00 +3°C° 0 mm 3 m/S 765 mmHg 76%
09:00 +4°C° 0 mm 3 m/S 765 mmHg 70%
10:00 +5°C° 0 mm 3 m/S 765 mmHg 62%
11:00 +6°C° 0 mm 4 m/S 765 mmHg 53%
12:00 +7°C° 0 mm 4 m/S 764 mmHg 44%
13:00 +7°C° 0 mm 4 m/S 764 mmHg 45%
14:00 +7°C° 0 mm 4 m/S 764 mmHg 46%
15:00 +7°C° 0 mm 4 m/S 764 mmHg 46%
16:00 +6°C° 0.1 mm 4 m/S 764 mmHg 53%
17:00 +7°C° 0.1 mm 3 m/S 764 mmHg 59%
18:00 +5°C° 0.1 mm 3 m/S 764 mmHg 65%
19:00 +4°C° 0 mm 3 m/S 764 mmHg 68%
20:00 +5°C° 0 mm 2 m/S 764 mmHg 71%
21:00 +4°C° 0 mm 2 m/S 764 mmHg 74%
22:00 +3°C° 0 mm 2 m/S 764 mmHg 76%
23:00 +3°C° 0 mm 2 m/S 764 mmHg 78%

16 April, Freitag

Zeit Temperatur Niederschläge Wind Luftdruck Luftfeuchtigkeit
00:00 +3°C° 0 mm 2 m/S 764 mmHg 81%
01:00 +2°C° 0 mm 2 m/S 764 mmHg 82%
02:00 +2°C° 0 mm 2 m/S 764 mmHg 83%
03:00 +2°C° 0 mm 2 m/S 763 mmHg 84%
04:00 +2°C° 0 mm 2 m/S 763 mmHg 83%
05:00 +1°C° 0 mm 3 m/S 764 mmHg 82%
06:00 +1°C° 0 mm 3 m/S 764 mmHg 81%
07:00 +3°C° 0 mm 3 m/S 764 mmHg 73%
08:00 +4°C° 0 mm 4 m/S 763 mmHg 66%
09:00 +6°C° 0 mm 5 m/S 763 mmHg 58%
10:00 +7°C° 0 mm 5 m/S 763 mmHg 54%
11:00 +8°C° 0 mm 5 m/S 763 mmHg 49%
12:00 +9°C° 0 mm 5 m/S 762 mmHg 45%
13:00 +10°C° 0 mm 5 m/S 762 mmHg 44%
14:00 +10°C° 0 mm 5 m/S 762 mmHg 44%
15:00 +10°C° 0 mm 5 m/S 762 mmHg 43%
16:00 +9°C° 0 mm 5 m/S 762 mmHg 49%
17:00 +8°C° 0 mm 4 m/S 762 mmHg 55%
18:00 +8°C° 0 mm 3 m/S 762 mmHg 61%
19:00 +7°C° 0 mm 3 m/S 762 mmHg 66%
20:00 +5°C° 0 mm 3 m/S 762 mmHg 72%
21:00 +4°C° 0 mm 3 m/S 762 mmHg 78%
22:00 +3°C° 0 mm 3 m/S 762 mmHg 79%
23:00 +3°C° 0 mm 2 m/S 762 mmHg 81%
Mehr zeigen

Wir brauchen deine Erlaubnis

Meteoprog und unser Service Anbieter werden persönliche Daten aufbewahren, so wie Cookies, Geräte Bezeichnung oder ähnliche Technologien von deinem Gerät und Prozess, so wie Persönliche Daten Inhalte und Werbungen, genauso wie social Media und den Verkehr zu analysieren.

  • Aufbewahrung und/oder Zugang zu deiner Geräte Informationen.

    Cookies, Geräte Bezeichnung oder andere Informationen, können aufbewahrt oder Zugang zu deinem Gerät erhalten, für den Grund, der oben angegeben wird.

  • Personalisierte Werbung und Inhalte, Messungen, Einblick in das Publikum und Produkt Entwicklung.

    Werbungen und Inhalte können personalisiert werden, basierend auf ein Profil. Mehr Daten können besser personalisierte Werbungen und Inhalte hinzufügen. Werbung und Inhalte können gezeigt und gemessen werden. Einblicke über das Publikum, welche die Werbung gesehen haben und den Inhalt, können abgeleitet werden. So wie Daten können genutzt werden, um es zu verbessern oder die Benutzer Erfahrung zu verbessern das System und die Software.

Wenn du “Ich stimme zu” klickst, erlaubst du uns, die Cookies zu benutzen die Geräte Bezeichnung, den Web oder ähnliche Technologien zu benutzen. Deine Settings, können in deinem Gerät bei deinem Browser geändert werden.

Für den bestimmten Zweck, berechtigten Interessen beruhen darauf, mehr als auf den Inhalt. Du kannst mehr darüber in unseren Privaten und Cookie Politik lesen.